This is the latest recevied weather packets stored in our database for station/object N8SDR. If no packets are shown the sender has not sent any weather packets the latest 10 day(s).
| Time | Temp. | Humidity | Pressure | Rain* | Wind** | Luminosity | Snow |
|---|---|---|---|---|---|---|---|
| 1777669884 | 11.67° C | 62% | 1011.9 hPa | 0 mm | - | 289 W/m² | - |
| 1777669580 | 11.67° C | 63% | 1012.2 hPa | 0 mm | - | 271 W/m² | - |
| 1777669277 | 11.67° C | 63% | 1011.8 hPa | 0 mm | - | 308 W/m² | - |
| 1777668973 | 11.67° C | 62% | 1011.8 hPa | 0 mm | - | 179 W/m² | - |
| 1777668671 | 11.67° C | 61% | 1012 hPa | 0 mm | - | 190 W/m² | - |
| 1777668368 | 12.78° C | 64% | 1011.8 hPa | 0 mm | - | 241 W/m² | - |
| 1777668063 | 11.67° C | 64% | 1011.9 hPa | 0 mm | - | 169 W/m² | - |
| 1777667760 | 11.67° C | 64% | 1012.1 hPa | 0 mm | - | 426 W/m² | - |
| 1777667458 | 12.22° C | 63% | 1012 hPa | 0 mm | - | 186 W/m² | - |
| 1777667155 | 12.22° C | 64% | 1012 hPa | 0 mm | - | 673 W/m² | - |
| 1777666851 | 11.67° C | 67% | 1011.9 hPa | 0 mm | - | 451 W/m² | - |
| 1777666549 | 12.22° C | 65% | 1011.8 hPa | 0 mm | - | 298 W/m² | - |
| 1777666245 | 11.67° C | 68% | 1011.8 hPa | 0 mm | - | 755 W/m² | - |
| 1777665942 | 11.67° C | 67% | 1011.9 hPa | 0 mm | - | 209 W/m² | - |
| 1777665639 | 11.67° C | 67% | 1012.1 hPa | 0 mm | - | 377 W/m² | - |
| 1777665337 | 11.11° C | 67% | 1012 hPa | 0 mm | - | 287 W/m² | - |
| 1777665032 | 11.67° C | 67% | 1012 hPa | 0 mm | - | 209 W/m² | - |
| 1777664728 | 12.78° C | 66% | 1012 hPa | 0 mm | - | 226 W/m² | - |
| 1777664424 | 12.78° C | 66% | 1011.9 hPa | 0 mm | - | 806 W/m² | - |
| 1777664122 | 11.67° C | 65% | 1011.9 hPa | 0 mm | - | 844 W/m² | - |
| 1777663820 | 12.22° C | 64% | 1012 hPa | 0 mm | - | 294 W/m² | - |
| 1777663516 | 11.67° C | 63% | 1011.9 hPa | 0 mm | - | 375 W/m² | - |
| 1777663215 | 11.67° C | 69% | 1011.8 hPa | 0 mm | - | 821 W/m² | - |
| 1777662911 | 12.22° C | 67% | 1011.8 hPa | 0 mm | - | 913 W/m² | - |
| 1777662609 | 12.22° C | 68% | 1011.6 hPa | 0 mm | - | 860 W/m² | - |
* Rain latest hour (hover to see other rain measurements)
** Current wind speed in m/s (hover to see current wind gust speed)